Regional Weather Roundup
Issued by NWS Charleston, SC

Current Version | Previous Version | Graphics & Text | Print | Product List | Glossary On
Versions: 1 2 3 4 5 6 7 8 9 10 11 12 13 14 15 16 17 18 19 20 21 22 23 24 25 26 27 28 29 30 31 32 33 34 35 36 37 38 39 40 41 42 43 44 45 46 47 48 49 50
154
ASUS42 KCHS 231827
RWRCHS

REGIONAL WEATHER ROUNDUP
NATIONAL WEATHER SERVICE CHARLESTON SC
200 PM EDT THU MAR 23 2017

NOTE: "FAIR" INDICATES FEW OR NO CLOUDS BELOW 12,000 FEET WITH NO
SIGNIFICANT WEATHER AND/OR OBSTRUCTIONS TO VISIBILITY.

NOT ALL STATIONS ARE QUALITY CONTROLLED. USE DATA WITH CAUTION...
ESPECIALLY DEWPOINT OBSERVATIONS.

SCZ027-030-031-034>040-042>050-231900-
...SOUTHEAST SOUTH CAROLINA...

CITY           SKY/WX    TMP DP  RH WIND       PRES   REMARKS
N CHARLESTON   MOSUNNY   63  39  41 E16       30.50F
6HR MIN TEMP:  47; 6HR MAX TEMP:  64;

WATERFRONT PRK   N/A     56  47  71 E17       30.50F
JOHNS ISLAND   FAIR      61  46  59 NE17G23   30.49F
PINOPOLIS        N/A     57  36  44 E8        30.42F
MONCKS CORNER  FAIR      61  28  29 NE5G17    30.50F
SUMMERVILLE    FAIR      63  32  31 NE8       30.50F
BEAUFORT MCAS  SUNNY     65  43  44 E13G21    30.47F
6HR MIN TEMP:  52; 6HR MAX TEMP:  66;

BEAUFORT ARPT  FAIR      61  45  55 NE17G24   30.47F
HILTON HEAD IS SUNNY     59  48  67 NE15G31   30.47F
WALTERBORO     CLEAR     63  36  36 NE14      30.49F
ALLENDALE      FAIR      64  34  32 E8        30.46F

...SOUTHERN MIDLANDS AND PEE DEE...

CITY           SKY/WX    TMP DP  RH WIND       PRES   REMARKS
GEORGETOWN     FAIR      55  37  50 NE14G20   30.55F
KINGSTREE      FAIR      59  19  21 E5        30.52F
ORANGEBURG     SUNNY     59  27  29 E8        30.51F
6HR MIN TEMP:  45; 6HR MAX TEMP:  59;

BARNWELL       FAIR      63  32  31 E8G15     30.48F
AIKEN          FAIR      59  27  29 NE10G17   30.52F
MANNING        FAIR      59  27  29 NE9       30.51F
COLUMBIA       MOSUNNY   59  22  24 E10       30.51F
6HR MIN TEMP:  45; 6HR MAX TEMP:  60;

SUMTER         SUNNY     59  22  23 NE10      30.50F
6HR MIN TEMP:  40; 6HR MAX TEMP:  59;

FLORENCE       SUNNY     56  24  29 E7        30.55F
6HR MIN TEMP:  37; 6HR MAX TEMP:  57;

MYRTLE BEACH   SUNNY     55  34  44 E14       30.56F
N MYRTLE BEACH SUNNY     54  31  41 SE15      30.55S
6HR MIN TEMP:  39; 6HR MAX TEMP:  56;


$$

GAZ063-065-086>088-099>101-113>116-118-119-134>141-150-231900-
...SOUTHEAST GEORGIA...

CITY           SKY/WX    TMP DP  RH WIND       PRES   REMARKS
SAVANNAH ARPT  MOSUNNY   67  43  41 E18       30.45F
6HR MIN TEMP:  54; 6HR MAX TEMP:  68;

HUNTER AAF     SUNNY     65  48  52 NE10      30.43F
6HR MIN TEMP:  56; 6HR MAX TEMP:  67;

FORT STEWART   PTSUNNY   66  46  48 NE16G23   30.41F
6HR MIN TEMP:  56; 6HR MAX TEMP:  67;

STATESBORO     MOSUNNY   67  46  47 E7        30.45F
SYLVANIA       MOCLDY   N/A N/A N/A SE12G17   30.46F
CLAXTON        FAIR      68  49  50 NE12G20   30.44F

...CSRA...CENTRAL AND FAR SOUTHEAST GEORGIA...

CITY           SKY/WX    TMP DP  RH WIND       PRES   REMARKS
THOMSON        MOSUNNY   61  29  30 S9        30.52F
AUGUSTA-BUSH   SUNNY     65  29  25 E8        30.48F
6HR MIN TEMP:  50; 6HR MAX TEMP:  66;

AUGUSTA-DANIEL SUNNY     62  25  24 E12       30.48F
SWAINSBORO     CLOUDY    64  43  45 SE12      30.45F
VIDALIA        CLOUDY    66  46  48 SE8       30.43F
EASTMAN        CLOUDY    67  33  28 E9        30.45F
HAZLEHURST     CLOUDY    66  50  57 E8        30.40F
ALMA           CLOUDY    66  51  58 E14G20    30.40F
6HR MIN TEMP:  58; 6HR MAX TEMP:  67;

WAYCROSS       CLOUDY    70  56  62 E14       30.39S
JESUP          CLOUDY    66  46  48 E18G24    30.42S
BAXLEY         CLOUDY    66  54  63 E10       30.40F
BRUNSWICK      PTSUNNY   66  54  63 NE24G30   30.42S
SAINT SIMONS   CLOUDY    67  48  50 NE21G33   30.41S
6HR MIN TEMP:  62; 6HR MAX TEMP:  68;


$$

SCZ027-028-034-036>038-045-046-048>050-GAZ119-141-231900-
...LAKE AND SUPPLEMENTAL COASTAL OBSERVATIONS...

STATION/POSITION TIME  TEMP    WIND        PRES    WAVE   SWELL
                       AIR SEA DIR/SP/G            HT/PER HT/PER/DIR
                 (UTC) (F)     (DEG/KT/KT) (MB)    (FT/S) (FT/S/D)
WINYAH BAY       1730   51      60/ 17     1034.0S
LAKE MURRAY      1750   55      90/  8/  9 1032.8F
ACE BASIN NERRS  1730   63      50/  7     1032.0S
FORT PULASKI     1800   57 61   70/ 23/ 29 1031.7
SAPELO ISLAND    1800   65      50/ 18     1030.0

$$

ANZ835-935-AMZ111-154-330-350-352-354-370-450-454-472-231900-
...C-MAN AND BUOY OBSERVATIONS...

STATION/POSITION TIME  TEMP    WIND        PRES    WAVE   SWELL
                       AIR SEA DIR/SP/G            HT/PER HT/PER/DIR
                 (UTC) (F)     (DEG/KT/KT) (MB)    (FT/S) (FT/S/D)
BUOY 41004       1750   59 71   40/ 23/ 27 1031.0F   6/ 7
BUOY 41008       1750   62 62   60/ 21/ 25 1029.3F   7/ 7
FOLLY BEACH CMAN 1800   54      50/ 25/ 28 1033.4F
CAPERS NEARSHORE 1708   54      60/ 23/ 29 1032.9F
FRIPP NEARSHORE  1808   56 60   60/ 23/ 29 1032.1F


STATION/POSITION TIME  TEMP    WIND        PRES    WAVE   SWELL
                       AIR SEA DIR/SP/G            HT/PER HT/PER/DIR
                 (UTC) (F)     (DEG/KT/KT) (MB)    (FT/S) (FT/S/D)
5E ST. MARYS GA  1800      63                N/A     7/ 8   2/ 80/12
FRYING PAN BUOY  1810   54 65   40/ 19/ 23 1033.8
BUOY 41025       1750   45 73   30/ 19/ 23 1035.4F   9/11   7/ 60/11
CAPE LOOKOUT NC  1800   44      30/ 20/ 25 1035.2F
BUOY 41002       1750   60 72   40/ 21/ 27 1030.0F   8/10   7/ 30/10
BUOY 41010       NOT AVBL
ST AUGUSTINE FL  1800   67 65   80/ 13/ 14 1028.3F


$$




USA.gov is the U.S. government's official web portal to all federal, state and local government web resources and services.